TimeCST,TemperatureF,Dew PointF,Humidity,Sea Level PressureIn,VisibilityMPH,Wind Direction,Wind SpeedMPH,Gust SpeedMPH,PrecipitationIn,Events,Conditions,WindDirDegrees,DateUTC
12:52 AM,37.0,21.9,54,30.34,10.0,NE,16.1,21.9,N/A,,Mostly Cloudy,40,2013-01-24 06:52:00
1:52 AM,36.0,19.9,52,30.35,10.0,NE,15.0,24.2,N/A,,Overcast,40,2013-01-24 07:52:00
2:52 AM,34.0,16.0,48,30.35,10.0,ENE,17.3,-,N/A,,Overcast,60,2013-01-24 08:52:00
3:52 AM,33.1,14.0,46,30.36,10.0,ENE,18.4,26.5,N/A,,Overcast,60,2013-01-24 09:52:00
4:52 AM,30.9,15.1,52,30.36,10.0,NE,16.1,-,N/A,,Overcast,50,2013-01-24 10:52:00
5:52 AM,30.0,15.1,54,30.36,10.0,NE,13.8,-,N/A,,Overcast,50,2013-01-24 11:52:00
6:52 AM,28.9,15.1,56,30.36,10.0,NE,19.6,-,N/A,,Overcast,50,2013-01-24 12:52:00
7:52 AM,28.0,15.1,58,30.36,10.0,NE,16.1,-,N/A,,Overcast,50,2013-01-24 13:52:00
8:52 AM,28.0,15.1,58,30.39,10.0,NE,13.8,26.5,N/A,,Overcast,50,2013-01-24 14:52:00
9:52 AM,30.0,16.0,56,30.36,10.0,ENE,12.7,-,N/A,,Overcast,70,2013-01-24 15:52:00
10:34 AM,30.2,15.8,55,30.36,10.0,ENE,15.0,20.7,N/A,,Overcast,60,2013-01-24 16:34:00
10:52 AM,30.0,14.0,51,30.38,10.0,NE,18.4,-,N/A,,Overcast,50,2013-01-24 16:52:00
11:52 AM,30.9,15.1,52,30.37,10.0,NE,16.1,-,N/A,,Overcast,40,2013-01-24 17:52:00
12:52 PM,32.0,15.1,50,30.32,10.0,ENE,15.0,-,N/A,,Overcast,60,2013-01-24 18:52:00
1:52 PM,33.1,18.0,54,30.28,10.0,ENE,10.4,-,N/A,,Overcast,70,2013-01-24 19:52:00
2:52 PM,33.1,19.0,56,30.25,10.0,ENE,11.5,-,N/A,,Overcast,70,2013-01-24 20:52:00
3:52 PM,34.0,19.9,56,30.23,10.0,ENE,12.7,-,N/A,,Overcast,60,2013-01-24 21:52:00
4:25 PM,33.8,19.4,56,30.19,10.0,NE,11.5,-,N/A,,Overcast,50,2013-01-24 22:25:00
4:52 PM,34.0,19.0,54,30.20,10.0,NE,10.4,-,N/A,,Overcast,50,2013-01-24 22:52:00
5:52 PM,35.1,19.0,52,30.20,10.0,NE,8.1,-,N/A,,Overcast,40,2013-01-24 23:52:00
6:01 PM,35.6,19.4,52,30.15,10.0,ENE,9.2,-,N/A,,Overcast,60,2013-01-25 00:01:00
6:27 PM,35.6,21.2,56,30.14,10.0,East,8.1,-,N/A,,Overcast,80,2013-01-25 00:27:00
6:39 PM,35.6,21.2,56,30.15,10.0,East,8.1,-,N/A,,Overcast,80,2013-01-25 00:39:00
6:52 PM,36.0,21.0,55,30.17,10.0,ENE,9.2,-,N/A,,Overcast,70,2013-01-25 00:52:00
7:22 PM,35.6,21.2,56,30.16,10.0,ENE,4.6,-,N/A,,Overcast,60,2013-01-25 01:22:00
7:52 PM,36.0,21.0,55,30.19,10.0,NNE,6.9,-,N/A,,Overcast,20,2013-01-25 01:52:00
8:52 PM,36.0,21.9,57,30.17,10.0,Calm,Calm,-,N/A,,Overcast,0,2013-01-25 02:52:00
9:52 PM,35.1,21.9,59,30.17,10.0,NNW,5.8,-,N/A,,Overcast,330,2013-01-25 03:52:00
10:52 PM,34.0,21.0,59,30.18,10.0,NNW,3.5,-,N/A,,Overcast,330,2013-01-25 04:52:00
11:52 PM,34.0,19.9,56,30.17,10.0,NNW,5.8,-,N/A,,Overcast,330,2013-01-25 05:52:00